User: anonymous   Login
Location: Nianha
(10.8000°N, 4.6333°W)
Time: 13:12:56
(UTC+00:00)
Language:

STARLINK-33 - Orbit

View from above orbital plane
View from above orbital plane
View from above satellite
View from above satellite

Ground track
Ground track

The orbit data is extracted from the following two-line orbital elements,

1 44247C 19029N   20057.18431765  .00007024  00000-0  10647-3 0   570
2 44247  53.0079 349.3662 0001745  61.4046 291.9594 15.54004871    13
Epoch (UTC): 26 February 2020 04:25:25
Eccentricity: 0.0001745
inclination: 53.0079°
perigee height: 404 km
apogee height: 406 km
right ascension of ascending node: 349.3662°
argument of perigee: 61.4046°
revolutions per day: 15.54004871
mean anomaly at epoch: 291.9594°
orbit number at epoch: 1

The dashed part of the orbit path shows where the satellite is in the earth's shadow,  

DLR